sat.trackr.live / text

‹ back to catalog

QIANFAN-82

NORAD 63168 · 2025-046K

PAYLOAD ACTIVE UNKNOWN

§ Identity

Operator
Country
PRC
Launch date
2025-03-11
Launch site
WSC
Launch vehicle
Mass (kg)
RCS (m²)

External: N2YO · Heavens-Above · Gunter

§ Orbital elements

Epoch: 2026-05-25T03:05:50.945568Z

Period
106.59 min
Inclination
88.9691°
Eccentricity
0.0013199
Mean motion
13.51007178 rev/d
Perigee alt
1,058.7 km
Apogee alt
1,078.4 km
Semi-major
7,446.7 km
B*
6.8760e-5
RAAN
302.9796°
Arg perigee
25.4948°
Mean anomaly
334.6851°
Rev number
6,953

§ Raw data

QIANFAN-821 63168U 25046K   26145.12906187  .00000056  00000+0  68760-4 0  99942 63168  88.9691 302.9796 0013199  25.4948 334.6851 13.51007178 69534

JSON: /api/v1/satellites/63168 · /tle

For live sub-satellite position, see the globe view (requires WebGL).

§ Visibility from observer

Set your observer location to see the next 7 days of passes ≥ 10°. The values pass through the URL so the page stays shareable.

No JS? Fill the form by hand. The geolocation button needs JavaScript.